Weather History for Rolla, ND

Change the Weather History Date:

Thursday, January 31, 2013

  Actual Average (KRUG) Record (KRUG)
Temperature  
Mean Temperature -16 °F -  
Max Temperature -9 °F 17 °F 41 °F (1987)
Min Temperature -23 °F -1 °F -32 °F (1982)
Degree Days  
Heating Degree Days 81    
Moisture  
Dew Point -24 °F    
Average Humidity 70    
Maximum Humidity 84    
Minimum Humidity 54    
Precipitation  
Precipitation 0.01 in - - ()
Sea Level Pressure  
Sea Level Pressure 30.11 in    
Wind  
Wind Speed 21 mph (NW)    
Max Wind Speed 29 mph    
Max Gust Speed 33 mph    
Visibility 6 miles    
Events Rain , Snow    
Averages and records for this station are not official NWS values.
T = Trace of Precipitation, MM = Missing Value Source: NWS Daily Summary

Daily Weather History Graph

Daily Weather History Graph

Search for Another Location

Airport:

Trip Planner

Search our weather history database for the weather conditions in past years. The results will help you decide how hot, cold, wet, or windy it might be!

Date:

Astronomy

Jan. 31, 2013 Rise Set
Actual Time 8:09 AM CST 5:35 PM CST
Civil Twilight 7:35 AM CST 6:09 PM CST
Nautical Twilight 6:57 AM CST 6:47 PM CST
Astronomical Twilight 6:20 AM CST 7:24 PM CST
Moon 11:11 PM CST (1/31) 9:41 AM CST (1/31)
Length of Visible Light 10h 33m
Length of Day
9h 25m
Waning Gibbous, 79% of the Moon is Illuminated
Jan 31
Waning Gibbous
Feb 3
Last Quarter
Feb 10
New
Feb 17
First Quarter
Feb 25
Full

Hourly Weather History & Observations

Time (CST) Temp. Windchill Dew Point Humidity Pressure Visibility Wind Dir Wind Speed Gust Speed Precip Events Conditions
12:15 AM -18.4 °F -47.7 °F -23.8 °F 76% 29.95 in 2.0 mi NNW 23.0 mph - N/A Rain Light Freezing Rain
12:35 AM -18.4 °F -48.3 °F -23.8 °F 76% 29.95 in 2.0 mi NNW 24.2 mph - N/A Snow Light Snow
12:55 AM -18.4 °F -48.3 °F -22.0 °F 84% 29.96 in 1.8 mi NNW 24.2 mph - N/A Rain Light Freezing Rain
1:15 AM -18.4 °F -47.1 °F -23.8 °F 76% 29.96 in 3.0 mi NNW 21.9 mph 28.8 mph N/A Rain Light Freezing Rain
1:35 AM -18.4 °F -48.3 °F -23.8 °F 76% 29.97 in 2.5 mi NNW 24.2 mph 28.8 mph N/A Rain Light Freezing Rain
1:55 AM -18.4 °F -47.7 °F -23.8 °F 76% 29.97 in 3.0 mi NNW 23.0 mph - N/A   Haze
2:15 AM -18.4 °F -48.3 °F -23.8 °F 76% 29.98 in 2.5 mi NNW 24.2 mph - N/A Snow Light Snow
2:35 AM -18.4 °F -48.8 °F -23.8 °F 76% 29.99 in 2.5 mi NNW 25.3 mph 29.9 mph N/A   Haze
2:55 AM -18.4 °F -48.8 °F -23.8 °F 76% 30.00 in 2.5 mi NNW 25.3 mph - N/A   Haze
3:15 AM -18.4 °F -48.8 °F -23.8 °F 76% 30.01 in 1.8 mi NNW 25.3 mph 32.2 mph N/A Snow Light Snow
3:35 AM -18.4 °F -50.3 °F -22.0 °F 84% 30.01 in 1.0 mi NNW 28.8 mph - N/A Snow Light Snow
3:55 AM -18.4 °F -49.4 °F -22.0 °F 84% 30.02 in 1.2 mi NNW 26.5 mph 32.2 mph N/A Snow Light Snow
4:15 AM -16.6 °F -45.3 °F -22.0 °F 76% 30.03 in 1.8 mi NNW 23.0 mph 29.9 mph N/A Snow Light Snow
4:35 AM -16.6 °F -47.4 °F -22.0 °F 76% 30.03 in 1.2 mi NNW 27.6 mph 33.4 mph N/A Rain Light Freezing Rain
4:55 AM -18.4 °F -50.3 °F -22.0 °F 84% 30.04 in 1.2 mi NNW 28.8 mph 32.2 mph N/A Snow Light Snow
5:15 AM -18.4 °F -50.3 °F -23.8 °F 76% 30.04 in 1.0 mi NNW 28.8 mph - N/A Snow Light Snow
5:35 AM -18.4 °F -48.8 °F -23.8 °F 76% 30.06 in 1.5 mi NNW 25.3 mph 32.2 mph 0.01 in Snow Light Snow
5:55 AM -16.6 °F -45.9 °F -22.0 °F 76% 30.07 in 2.0 mi NNW 24.2 mph 33.4 mph 0.01 in Snow Light Snow
6:15 AM -16.6 °F -45.3 °F -22.0 °F 76% 30.07 in 2.5 mi NNW 23.0 mph - N/A   Haze
6:35 AM -18.4 °F -48.3 °F -23.8 °F 76% 30.08 in 3.0 mi NNW 24.2 mph 29.9 mph N/A   Haze
6:55 AM -18.4 °F -47.7 °F -25.6 °F 70% 30.10 in 5.0 mi NNW 23.0 mph 27.6 mph N/A   Haze
7:15 AM -18.4 °F -48.3 °F -25.6 °F 70% 30.10 in 4.0 mi NNW 24.2 mph 29.9 mph N/A   Haze
7:35 AM -20.2 °F -52.3 °F -25.6 °F 76% 30.10 in 2.5 mi NNW 27.6 mph - N/A Snow Light Snow
7:55 AM -20.2 °F -50.7 °F -27.4 °F 69% 30.11 in 1.8 mi NW 24.2 mph - N/A Snow Light Snow
8:15 AM -20.2 °F -51.2 °F -27.4 °F 69% 30.13 in 2.0 mi NNW 25.3 mph - N/A   Haze
8:35 AM -20.2 °F -50.7 °F -27.4 °F 69% 30.13 in 1.5 mi NNW 24.2 mph - N/A   Haze
8:55 AM -20.2 °F -51.2 °F -27.4 °F 69% 30.14 in 1.0 mi NNW 25.3 mph 31.1 mph N/A Snow Light Snow
9:15 AM -20.2 °F -51.8 °F -27.4 °F 69% 30.14 in 1.2 mi NNW 26.5 mph - N/A   Haze
9:35 AM -20.2 °F -51.8 °F -27.4 °F 69% 30.14 in 1.0 mi NNW 26.5 mph - N/A Snow Light Snow
9:55 AM -20.2 °F -51.2 °F -27.4 °F 69% 30.15 in 1.2 mi NNW 25.3 mph 32.2 mph N/A   Haze
10:15 AM -18.4 °F -48.8 °F -25.6 °F 70% 30.16 in 1.5 mi NW 25.3 mph 31.1 mph N/A   Haze
10:35 AM -18.4 °F -48.8 °F -25.6 °F 70% 30.16 in 1.8 mi NNW 25.3 mph 29.9 mph N/A   Haze
10:55 AM -18.4 °F -47.7 °F -25.6 °F 70% 30.16 in 1.8 mi NNW 23.0 mph 29.9 mph N/A Snow Light Snow
11:15 AM -18.4 °F -47.7 °F -25.6 °F 70% 30.17 in 3.0 mi NW 23.0 mph 31.1 mph N/A   Haze
11:35 AM -18.4 °F -45.9 °F -25.6 °F 70% 30.18 in 9.0 mi NW 19.6 mph - N/A   Clear
11:55 AM -16.6 °F -43.5 °F -25.6 °F 64% 30.18 in 10.0 mi NW 19.6 mph 23.0 mph N/A   Clear
12:15 PM -16.6 °F -42.1 °F -23.8 °F 70% 30.18 in 10.0 mi NW 17.3 mph 23.0 mph N/A   Clear
12:35 PM -16.6 °F -43.5 °F -23.8 °F 70% 30.18 in 9.0 mi NW 19.6 mph - N/A   Clear
12:55 PM -13.0 °F -36.0 °F -22.0 °F 64% 30.18 in 10.0 mi NNW 15.0 mph - N/A   Clear
1:15 PM -13.0 °F -33.4 °F -22.0 °F 64% 30.18 in 10.0 mi NNW 11.5 mph - N/A   Clear
1:35 PM -11.2 °F -30.1 °F -22.0 °F 59% 30.17 in 10.0 mi NNW 10.4 mph - N/A   Clear
1:55 PM - - - N/A% 30.17 in 10.0 mi NNW 9.2 mph - N/A   Clear
2:15 PM -11.2 °F -32.1 °F -22.0 °F 59% 30.17 in 10.0 mi NNW 12.7 mph 16.1 mph N/A   Clear
2:35 PM -11.2 °F -31.1 °F -22.0 °F 59% 30.16 in 10.0 mi WNW 11.5 mph 16.1 mph N/A   Clear
2:55 PM -11.2 °F -27.8 °F -22.0 °F 59% 30.16 in 10.0 mi North 8.1 mph - N/A   Clear
3:15 PM -11.2 °F -24.8 °F -22.0 °F 59% 30.16 in 10.0 mi NNW 5.8 mph - N/A   Clear
3:35 PM -9.4 °F -30.6 °F -20.2 °F 59% 30.16 in 10.0 mi NW 13.8 mph - N/A   Clear
3:55 PM -9.4 °F -32.1 °F -22.0 °F 54% 30.16 in 10.0 mi WNW 16.1 mph - N/A   Clear
4:15 PM -11.2 °F -35.2 °F -22.0 °F 59% 30.16 in 10.0 mi NW 17.3 mph 21.9 mph N/A   Clear
4:35 PM -11.2 °F -31.1 °F -22.0 °F 59% 30.16 in 10.0 mi NNW 11.5 mph - N/A   Clear
4:55 PM -13.0 °F -32.4 °F -22.0 °F 64% 30.16 in 10.0 mi NW 10.4 mph - N/A   Clear
5:15 PM -13.0 °F -31.3 °F -22.0 °F 64% 30.16 in 10.0 mi NW 9.2 mph - N/A   Clear
5:35 PM -14.8 °F -34.6 °F -23.8 °F 64% 30.16 in 10.0 mi West 10.4 mph - N/A   Clear
5:55 PM -16.6 °F -35.7 °F -23.8 °F 70% 30.16 in 10.0 mi NW 9.2 mph - N/A   Clear
6:15 PM -16.6 °F -38.9 °F -25.6 °F 64% 30.17 in 10.0 mi WNW 12.7 mph - N/A   Clear
6:35 PM -16.6 °F -37.9 °F -25.6 °F 64% 30.17 in 10.0 mi WNW 11.5 mph - N/A   Clear
7:15 PM -18.4 °F -42.1 °F -25.6 °F 70% 30.16 in 10.0 mi WNW 13.8 mph - N/A   Clear
7:35 PM -18.4 °F -40.2 °F -25.6 °F 70% 30.16 in 10.0 mi WNW 11.5 mph - N/A   Clear
7:55 PM -18.4 °F -40.2 °F -25.6 °F 70% 30.16 in 10.0 mi West 11.5 mph - N/A   Clear
8:15 PM -18.4 °F -40.2 °F -25.6 °F 70% 30.15 in 10.0 mi WNW 11.5 mph - N/A   Clear
8:35 PM -18.4 °F -42.9 °F -25.6 °F 70% 30.15 in 10.0 mi WNW 15.0 mph - N/A   Clear
8:55 PM -16.6 °F -42.1 °F -25.6 °F 64% 30.15 in 10.0 mi WNW 17.3 mph - N/A   Clear
9:15 PM -16.6 °F -38.9 °F -25.6 °F 64% 30.14 in 10.0 mi NW 12.7 mph - N/A   Clear
9:35 PM -18.4 °F -39.1 °F -25.6 °F 70% 30.13 in 10.0 mi NW 10.4 mph - N/A   Clear
9:55 PM -18.4 °F -35.1 °F -25.6 °F 70% 30.14 in 10.0 mi NW 6.9 mph - N/A   Clear
10:15 PM -18.4 °F - -25.6 °F 70% 30.14 in 10.0 mi Calm Calm - N/A   Clear
10:35 PM -23.8 °F - -29.2 °F 76% 30.13 in 10.0 mi Calm Calm - N/A   Clear
10:55 PM -20.2 °F -30.9 °F -25.6 °F 76% 30.12 in 10.0 mi NNE 3.5 mph - N/A   Clear
11:15 PM -23.8 °F -41.6 °F -31.0 °F 69% 30.12 in 10.0 mi SW 6.9 mph - N/A   Clear
11:35 PM -23.8 °F -41.6 °F -29.2 °F 76% 30.11 in 10.0 mi SSW 6.9 mph - N/A   Clear
11:55 PM -23.8 °F -41.6 °F -29.2 °F 76% 30.11 in 10.0 mi SSW 6.9 mph - N/A   Clear